Starlink 31516

operational
NORAD ID: 59221 Int'l Des: 2024-046 Owner: SPXS Country: US Constellation: starlink
LEOCIRCULAR

About Starlink 31516

Description loading...

Live Position

Loading 3D Globe...

Upcoming Passes

Altitude History

Altitude vs Time

uPlot chart will show altitude changes over time

Two-Line Element Set

1 59221U 24046W 26035.18607211 -.00000418 00000-0 -20059-5 0 9993
2 59221 53.1611 310.6967 0001096 135.8994 224.2095 15.30194469107919
Epoch: Feb 4, 2026 • Age: 21 hours

Current Status

Altitude 487.7 km
Velocity 7.62 km/s
Sub-Earth Point -38.19°S, 0.49°W
Launch Date Mar 11, 2024
Age 1.9 years
Type internet

Technical Details

Classification Payload
Mass 730.00 kg
Dry Mass 700.00 kg
Total Mass 730.00 kg
Length 0.30 m
Diameter 4.10 m
Span 29.00 m
Shape Box + pan
Manufacturer SPXS
Bus Type Starlink V2M
Phase Status In Orbit
Owner/State SPXS/US

Large Constellations

Loading constellations...